Location: Gugi
(45.4667°N, 11.1000°E)
Time: 01:53:30
(UTC+00:00)

Cosmos 2227 Rocket - Pass Details

Date: 17 November 2019
Orbit: 839 x 845 km, 71.0° (Epoch: 15 December)

Event Time Altitude Azimuth Distance (km) Brightness Sun altitude
Rises 16:24:32 0° 335° (NNW) 3,415 5.4 -7.4°
Reaches altitude 10° 16:27:00 10° 337° (NNW) 2,475 4.7 -7.8°
Maximum altitude 16:32:42 76° 63° (ENE) 874 2.2 -8.7°
Drops below altitude 10° 16:38:20 10° 149° (SSE) 2,455 4.5 -9.7°
Sets 16:40:47 0° 151° (SSE) 3,385 5.2 -10.1°
